Location: Brabourne
(51.1333°N, 1.0000°E)
Time: 08:29:38
(UTC+00:00)

Cosmos 1825 - Visible Passes

Search period start: 28 October 2021 00:00
Search period end: 07 November 2021 00:00
Orbit: 499 x 506 km, 82.5° (Epoch: 27 October)

Date Brightness Start Highest point End Pass type
(mag) Time Alt. Az. Time Alt. Az. Time Alt. Az.
28 Oct 2.1 18:15:47 10° N 18:19:31 59° ENE 18:23:12 10° SSE visible
28 Oct 5.3 19:52:36 10° NW 19:54:29 13° W 19:56:21 10° WSW visible
29 Oct 2.4 17:56:49 10° N 18:00:27 44° ENE 18:04:04 10° SSE visible
29 Oct 5.0 19:33:04 10° NW 19:35:35 17° W 19:38:05 10° SW visible
30 Oct 2.8 17:37:54 10° N 17:41:22 34° ENE 17:44:49 10° SE visible
30 Oct 4.7 19:13:41 10° NW 19:16:39 22° W 19:19:36 10° SW visible
31 Oct 3.1 17:19:01 10° N 17:22:16 26° ENE 17:25:29 10° SE visible
31 Oct 4.2 18:54:25 10° NNW 18:57:42 28° W 19:00:57 10° SSW visible
01 Nov 3.4 17:00:12 10° NNE 17:03:08 21° ENE 17:06:03 10° ESE visible
01 Nov 3.7 18:35:14 10° NNW 18:38:44 37° W 18:42:13 10° SSW visible
02 Nov 3.1 18:16:05 10° NNW 18:19:44 49° W 18:23:23 10° S visible
03 Nov 2.5 17:56:59 10° NNW 18:00:44 66° W 18:04:27 10° S visible
04 Nov 4.3 06:14:52 10° SSE 06:18:12 31° E 06:21:34 10° NNE visible
04 Nov 2.1 17:37:54 10° N 17:41:42 88° W 17:45:28 10° S visible
05 Nov 4.8 05:56:11 10° SE 05:59:15 24° E 06:02:19 10° NE visible
05 Nov 2.1 17:18:52 10° N 17:22:39 69° ENE 17:26:24 10° SSE visible
05 Nov 5.7 18:56:10 10° WNW 18:57:32 12° W 18:58:53 10° WSW visible
06 Nov 5.3 05:37:36 10° SE 05:40:17 19° E 05:42:58 10° NE visible
06 Nov 2.3 16:59:52 10° N 17:03:34 52° ENE 17:07:15 10° SSE visible
06 Nov 5.4 18:36:23 10° NW 18:38:36 15° W 18:40:49 10° WSW visible
